Weather History for Miles City, MT

Change the Weather History Date:

Tuesday, October 15, 2013

  Actual Average Record
Temperature  
Mean Temperature 42 °F 47 °F  
Max Temperature 53 °F 60 °F 83 °F (1958)
Min Temperature 31 °F 34 °F 20 °F (1976)
Degree Days  
Heating Degree Days 23 18  
Month to date heating degree days 259 229  
Since 1 July heating degree days 362 465  
Cooling Degree Days 0 0  
Month to date cooling degree days 0 0  
Year to date cooling degree days 877 728  
Moisture  
Dew Point 30 °F    
Average Humidity 67    
Maximum Humidity 92    
Minimum Humidity 41    
Precipitation  
Precipitation 0.00 in 0.04 in 0.47 in (1980)
Month to date precipitation 0.52 0.52  
Year to date precipitation 15.95 11.36  
Sea Level Pressure  
Sea Level Pressure 30.30 in    
Wind  
Wind Speed 8 mph (West)    
Max Wind Speed 14 mph    
Max Gust Speed 18 mph    
Visibility 10 miles    
Events      
T = Trace of Precipitation, MM = Missing Value Source: NWS Daily Summary

Daily Weather History Graph

Daily Weather History Graph

Search for Another Location

Airport:

Trip Planner

Search our weather history database for the weather conditions in past years. The results will help you decide how hot, cold, wet, or windy it might be!

Date:

Astronomy

Oct. 15, 2013 Rise Set
Actual Time 7:21 AM MDT 6:16 PM MDT
Civil Twilight 6:50 AM MDT 6:46 PM MDT
Nautical Twilight 6:15 AM MDT 7:21 PM MDT
Astronomical Twilight 5:41 AM MDT 7:56 PM MDT
Moon 4:32 PM MDT (10/15) 3:35 AM MDT (10/15)
Length of Visible Light 11h 55m
Length of Day
10h 55m
Waxing Gibbous, 88% of the Moon is Illuminated
Oct 15
Waxing Gibbous
Oct 18
Full
Oct 26
Last Quarter
Nov 3
New
Nov 9
First Quarter

Hourly Weather History & Observations

Time (MDT) Temp. Windchill Dew Point Humidity Pressure Visibility Wind Dir Wind Speed Gust Speed Precip Events Conditions
12:53 AM 37.0 °F 31.6 °F 33.1 °F 86% 30.40 in 10.0 mi NW 6.9 mph - N/A   Overcast
1:53 AM 36.0 °F 28.5 °F 32.0 °F 86% 30.39 in 10.0 mi West 10.4 mph - N/A   Mostly Cloudy
2:53 AM 36.0 °F 29.6 °F 30.9 °F 82% 30.38 in 10.0 mi WNW 8.1 mph - N/A   Overcast
3:53 AM 34.0 °F 26.0 °F 30.0 °F 85% 30.38 in 10.0 mi West 10.4 mph - N/A   Clear
4:53 AM 34.0 °F 26.6 °F 28.9 °F 82% 30.38 in 10.0 mi West 9.2 mph - N/A   Clear
5:53 AM 33.1 °F 25.5 °F 28.0 °F 82% 30.38 in 10.0 mi WNW 9.2 mph - N/A   Clear
6:53 AM 32.0 °F 23.6 °F 28.0 °F 85% 30.39 in 10.0 mi WNW 10.4 mph - N/A   Clear
7:53 AM 30.9 °F 25.2 °F 28.0 °F 89% 30.40 in 10.0 mi WNW 5.8 mph - N/A   Clear
8:53 AM 35.1 °F 29.3 °F 28.9 °F 78% 30.40 in 10.0 mi WNW 6.9 mph - N/A   Clear
9:53 AM 41.0 °F 35.8 °F 30.9 °F 67% 30.39 in 10.0 mi West 8.1 mph - N/A   Clear
10:53 AM 46.0 °F 43.9 °F 30.0 °F 54% 30.37 in 10.0 mi Variable 4.6 mph - N/A   Clear
11:53 AM 48.9 °F - 30.0 °F 48% 30.34 in 10.0 mi Variable 3.5 mph - N/A   Clear
12:53 PM 50.0 °F - 30.0 °F 46% 30.31 in 10.0 mi WNW 6.9 mph - N/A   Scattered Clouds
1:53 PM 51.1 °F - 28.9 °F 43% 30.28 in 10.0 mi Variable 5.8 mph 17.3 mph N/A   Partly Cloudy
2:53 PM 52.0 °F - 28.0 °F 40% 30.25 in 10.0 mi West 10.4 mph - N/A   Clear
3:53 PM 53.1 °F - 30.0 °F 41% 30.23 in 10.0 mi West 10.4 mph - N/A   Clear
4:53 PM 52.0 °F - 30.0 °F 43% 30.21 in 10.0 mi WSW 11.5 mph - N/A   Clear
5:53 PM 48.0 °F - 30.9 °F 52% 30.20 in 10.0 mi WSW 5.8 mph - N/A   Clear
6:53 PM 41.0 °F 37.1 °F 30.9 °F 67% 30.21 in 10.0 mi SW 5.8 mph - N/A   Clear
7:53 PM 39.9 °F 35.1 °F 30.9 °F 70% 30.20 in 10.0 mi SSW 6.9 mph - N/A   Clear
8:53 PM 37.9 °F - 30.9 °F 76% 30.18 in 10.0 mi North - - N/A   Clear
9:53 PM 36.0 °F - 30.0 °F 79% 30.17 in 10.0 mi North - - N/A   Clear
10:53 PM 35.1 °F 30.1 °F 30.0 °F 82% 30.14 in 10.0 mi South 5.8 mph - N/A   Clear
11:53 PM 33.1 °F 28.7 °F 30.0 °F 89% 30.13 in 10.0 mi SSE 4.6 mph - N/A   Clear